| time (UTC) | temp F | wind direction | speed MPH | gust MPH | rain 1hr in | rain 24hr in | rain mn in | humidity % | barometer mb |
| 20260510083304 | 73 | 209 | 2.0 | 6.0 | 0.00 | 0.00 | 0.00 | 61 | 1016.2 |
| 20260510081803 | 74 | 272 | 2.0 | 7.0 | 0.00 | 0.00 | 0.00 | 61 | 1016.2 |
| 20260510080305 | 73 | 235 | 2.0 | 5.0 | 0.00 | 0.00 | 0.00 | 62 | 1016.1 |
| 20260510074805 | 73 | 212 | 1.0 | 4.0 | 0.00 | 0.00 | 0.00 | 61 | 1015.6 |
| 20260510073302 | 73 | 219 | 1.0 | 3.0 | 0.00 | 0.00 | 0.00 | 61 | 1015.4 |
| 20260510071803 | 72 | 243 | 1.0 | 4.0 | 0.00 | 0.00 | 0.00 | 61 | 1015.5 |
| 20260510070305 | 71 | 250 | 1.0 | 3.0 | 0.00 | 0.00 | 0.00 | 61 | 1015.4 |
| 20260510063301 | 70 | 254 | 0.0 | 3.0 | 0.00 | 0.00 | 0.00 | 65 | 1015.3 |
| 20260510061757 | 69 | 279 | 1.0 | 3.0 | 0.00 | 0.00 | 0.00 | 67 | 1015.4 |
| 20260510060304 | 68 | 183 | 1.0 | 3.0 | 0.00 | 0.00 | 0.00 | 68 | 1015.4 |
| 20260510054803 | 68 | 245 | 0.0 | 2.0 | 0.00 | 0.00 | 0.00 | 70 | 1015.3 |
| 20260510050259 | 65 | 159 | 0.0 | 0.0 | 0.00 | 0.00 | 0.00 | 72 | 1014.6 |
| 20260510044752 | 65 | 155 | 0.0 | 0.0 | 0.00 | 0.00 | 0.00 | 73 | 1014.8 |
| 20260510043252 | 64 | 180 | 0.0 | 0.0 | 0.00 | 0.00 | 0.00 | 72 | 1014.9 |
| 20260510041800 | 64 | 180 | 0.0 | 0.0 | 0.00 | 0.00 | 0.00 | 71 | 1014.7 |
| 20260510034804 | 63 | 169 | 0.0 | 0.0 | 0.00 | 0.00 | 0.00 | 72 | 1014.3 |
| 20260510033257 | 63 | 151 | 0.0 | 0.0 | 0.00 | 0.00 | 0.00 | 72 | 1014.2 |
| 20260510031758 | 63 | 151 | 0.0 | 0.0 | 0.00 | 0.00 | 0.00 | 71 | 1014.2 |
| 20260510030256 | 63 | 149 | 0.0 | 0.0 | 0.00 | 0.00 | 0.00 | 70 | 1014.2 |
| 20260510020255 | 64 | 154 | 0.0 | 0.0 | 0.00 | 0.00 | 0.00 | 71 | 1013.8 |
| 20260510014802 | 64 | 148 | 0.0 | 0.0 | 0.00 | 0.00 | 0.00 | 71 | 1013.8 |
| 20260510013255 | 64 | 144 | 0.0 | 0.0 | 0.00 | 0.00 | 0.00 | 71 | 1013.9 |
| 20260510011754 | 64 | 144 | 0.0 | 0.0 | 0.00 | 0.00 | 0.00 | 70 | 1013.9 |
| 20260510003254 | 65 | 161 | 0.0 | 0.0 | 0.00 | 0.00 | 0.00 | 69 | 1013.7 |
| 20260510001822 | 65 | 152 | 0.0 | 0.0 | 0.00 | 0.00 | 0.00 | 68 | 1013.7 |
| 20260510000305 | 65 | 176 | 0.0 | 0.0 | 0.00 | 0.00 | 0.00 | 67 | 1014.0 |
| 20260509234757 | 65 | 159 | 0.0 | 0.0 | 0.00 | 0.00 | 0.00 | 66 | 1014.0 |
| 20260509231752 | 66 | 166 | 0.0 | 0.0 | 0.00 | 0.00 | 0.00 | 65 | 1014.1 |
| 20260509230250 | 66 | 152 | 0.0 | 0.0 | 0.00 | 0.00 | 0.00 | 64 | 1014.2 |
| 20260509221751 | 66 | 0 | 0.0 | 2.0 | 0.00 | 0.00 | 0.00 | 67 | 1014.4 |
| 20260509220250 | 66 | 159 | 0.0 | 2.0 | 0.00 | 0.00 | 0.00 | 66 | 1014.5 |
| 20260509214756 | 66 | 164 | 0.0 | 0.0 | 0.00 | 0.00 | 0.00 | 64 | 1014.5 |
| 20260509214649 | 67 | 164 | 0.0 | 0.0 | 0.00 | 0.00 | 0.00 | 64 | 1014.4 |
| 20260509213136 | 66 | 164 | 0.0 | 0.0 | 0.00 | 0.00 | 0.00 | 65 | 1014.4 |
| 20260509211651 | 67 | 175 | 0.0 | 0.0 | 0.00 | 0.00 | 0.00 | 65 | 1014.4 |
| 20260509210134 | 66 | 175 | 0.0 | 2.0 | 0.00 | 0.00 | 0.00 | 65 | 1014.3 |
| 20260509203133 | 66 | 41 | 0.0 | 2.0 | 0.00 | 0.00 | 0.00 | 65 | 1014.3 |
| 20260509201633 | 66 | 0 | 0.0 | 1.0 | 0.00 | 0.00 | 0.00 | 66 | 1014.2 |
| 20260509200133 | 67 | 165 | 1.0 | 3.0 | 0.00 | 0.00 | 0.00 | 65 | 1014.0 |
| 20260509194635 | 67 | 0 | 0.0 | 0.0 | 0.00 | 0.00 | 0.00 | 65 | 1014.1 |
| 20260509193135 | 67 | 0 | 0.0 | 0.0 | 0.00 | 0.00 | 0.00 | 65 | 1014.1 |
| 20260509191633 | 67 | 303 | 0.0 | 0.0 | 0.00 | 0.00 | 0.00 | 65 | 1013.9 |
| 20260509190134 | 67 | 288 | 0.0 | 0.0 | 0.00 | 0.00 | 0.00 | 65 | 1014.0 |
| 20260509184634 | 68 | 240 | 0.0 | 0.0 | 0.00 | 0.00 | 0.00 | 64 | 1014.0 |
| 20260509183137 | 69 | 262 | 0.0 | 0.0 | 0.00 | 0.00 | 0.00 | 64 | 1014.0 |
| 20260509181635 | 69 | 264 | 0.0 | 3.0 | 0.00 | 0.00 | 0.00 | 63 | 1013.8 |
| 20260509180137 | 69 | 258 | 0.0 | 2.0 | 0.00 | 0.00 | 0.00 | 62 | 1013.5 |
| 20260509174635 | 69 | 257 | 1.0 | 3.0 | 0.00 | 0.00 | 0.00 | 61 | 1013.3 |
| 20260509173135 | 70 | 264 | 0.0 | 3.0 | 0.00 | 0.00 | 0.00 | 59 | 1013.2 |
| 20260509171636 | 71 | 268 | 1.0 | 3.0 | 0.00 | 0.00 | 0.00 | 56 | 1013.1 |
| 20260509170148 | 72 | 250 | 1.0 | 4.0 | 0.00 | 0.00 | 0.00 | 54 | 1012.9 |
| 20260509164637 | 72 | 305 | 1.0 | 4.0 | 0.00 | 0.00 | 0.00 | 52 | 1012.8 |
| 20260509161625 | 73 | 168 | 1.0 | 9.0 | 0.00 | 0.00 | 0.00 | 48 | 1012.6 |
| 20260509160125 | 74 | 128 | 1.0 | 9.0 | 0.00 | 0.00 | 0.00 | 47 | 1012.6 |
| 20260509154622 | 74 | 137 | 1.0 | 7.0 | 0.00 | 0.00 | 0.00 | 46 | 1012.5 |
| 20260509153126 | 74 | 241 | 2.0 | 10.0 | 0.00 | 0.00 | 0.00 | 44 | 1012.5 |
| 20260509151619 | 75 | 230 | 3.0 | 12.0 | 0.00 | 0.00 | 0.00 | 43 | 1012.5 |
| 20260509143111 | 76 | 199 | 3.0 | 9.0 | 0.00 | 0.00 | 0.00 | 38 | 1012.6 |
| 20260509141611 | 77 | 223 | 5.0 | 12.0 | 0.00 | 0.00 | 0.00 | 37 | 1012.6 |
| 20260509140111 | 77 | 293 | 4.0 | 12.0 | 0.00 | 0.00 | 0.00 | 35 | 1012.7 |
| 20260509133107 | 77 | 230 | 4.0 | 13.0 | 0.00 | 0.00 | 0.00 | 34 | 1012.8 |
| 20260509131609 | 77 | 206 | 4.0 | 15.0 | 0.00 | 0.00 | 0.00 | 33 | 1012.9 |
| 20260509124604 | 76 | 175 | 6.0 | 14.0 | 0.00 | 0.00 | 0.00 | 35 | 1013.2 |
| 20260509123107 | 77 | 227 | 5.0 | 13.0 | 0.00 | 0.00 | 0.00 | 37 | 1013.4 |
| 20260509121613 | 77 | 164 | 4.0 | 17.0 | 0.00 | 0.00 | 0.00 | 37 | 1013.5 |
| 20260509114603 | 76 | 142 | 4.0 | 14.0 | 0.00 | 0.00 | 0.00 | 39 | 1013.5 |
| 20260509113102 | 76 | 149 | 4.0 | 16.0 | 0.00 | 0.00 | 0.00 | 40 | 1013.7 |
| 20260509104602 | 76 | 134 | 4.0 | 14.0 | 0.00 | 0.00 | 0.00 | 43 | 1013.8 |
| 20260509103103 | 75 | 217 | 4.0 | 13.0 | 0.00 | 0.00 | 0.00 | 43 | 1013.9 |
| 20260509100109 | 75 | 152 | 3.0 | 11.0 | 0.00 | 0.00 | 0.00 | 44 | 1014.2 |
| 20260509094603 | 76 | 231 | 2.0 | 11.0 | 0.00 | 0.00 | 0.00 | 39 | 1014.4 |
| 20260509093102 | 76 | 203 | 3.0 | 10.0 | 0.00 | 0.00 | 0.00 | 36 | 1014.6 |
| 20260509091602 | 76 | 212 | 4.0 | 9.0 | 0.00 | 0.00 | 0.00 | 35 | 1014.4 |
| 20260509084603 | 75 | 252 | 3.0 | 9.0 | 0.00 | 0.00 | 0.00 | 42 | 1014.6 |